COSMOS 1275 DEB

Satellite information

Favourite Embed

Satellite Type and Status

DEBRISIN ORBIT

Key statistics

Satellite COSMOS 1275 DEB at a glance.

Uptime

16212

Days in orbit

Revolutions

≈ 13.9

Per day

Orbit

LEO

Low Earth Orbit

Inclination

82.9

Latest

Satellite identification and parameters

Extended collection of information and parameters for COSMOS 1275 DEB.

Object identification

Identified? True

Debris? True

Object name: COSMOS 1275 DEB

International designator: 1981-053DW

Object number (NORAD): 12780

Object ID (CCSDS): 12780

Country: COMMONWEALTH OF INDEPENDENT STATES (CIS)

Current information (Y/N): Y

RCS size: MEDIUM

Orbital parameters

Period: 103.508 minutes

Inclination: 82.9446 deg

SMA: 7302.586 km

Apoapsis: 941.974 km

Periapsis: 906.928 km

RAAN: 255.8483 deg

Eccentricy: 0.0023995

Argument of periapsis: 102.7328 deg

Mean anomaly: 286.392 deg

Mean motion: 13.91194141 rev/day

Mean motion (dot): 0.0000117 rev/day2

B* drag term: 0.00091518 1/REarth

Two-line elements (TLE)

Creation date: Oct. 21, 2025, 11:56 p.m.

Reference frame: TEME

Reference center: EARTH

Epoch: Oct. 21, 2025, 8:48 p.m. UTC

TLE line 0: 0 COSMOS 1275 DEB

TLE line 1: 1 12780U 81053DW 25294.86702546 .00001170 00000-0 91518-3 0 9991

TLE line 2: 2 12780 82.9446 255.8483 0023995 102.7328 286.3920 13.91194141231986

Live tracking on map

Real-time ground track for satellite COSMOS 1275 DEB.

In-orbit conjunctions

A list of the most updated potential collisions computed for object COSMOS 1275 DEB.

Target Orbit TCA Probability of collision Miss distance Type
THORAD AGENA D DEB SSO 2024-11-18 23:53:28 0.0002277602 84.0 (m) DEBRIS
FENGYUN 1C DEB SSO 2024-08-16 00:50:44 0.0003366865 83.0 (m) DEBRIS
COSMOS 1275 DEB LEO 2024-08-03 15:10:23 0.003555566 20.0 (m) DEBRIS

Associated space launch

Navigation satellite providing location information for the Tsiklon-B navigation system

COSMOS 1275 DEB was lifted into orbit during the mission ‘Kosmos-3M | Parus 27’, on board a Kosmos-3M space rocket.

The launch took place on June 4, 1981, 3:41 p.m. from 132/2.

For more information about the launch, click the button.

Launch to space Kosmos-3M | Parus 27
Kosmos-3M | Parus 27

Agency: N/A

Status: Launch Successful

Launch date: June 4, 1981, 3:41 p.m. UTC

Rocket: Kosmos-3M

Launch pad: 132/2

Location: Plesetsk Cosmodrome, Russian Federation

...

Latest news about this satellite

There are no fresh news available about this satellite. Check back as we update our databases every day.


Newsletter sign-up

Weekly statistics, charts and insights to help you stay on top of the space industry.